Wind_Speed
14 13 13 13 13 12 12 11 11 11 11 11 10 10 9 8 8 7 7 6 6 6 5 5 4 4 4 3 3 2 2 2 2 2 1 1 1 2 2 2 2 2 2
15 15 15 14 14 14 13 13 12 12 12 12 11 11 10 9 9 8 8 7 7 7 7 6 5 5 5 4 4 3 3 3 3 3 2 2 2 2 2 2 3 3 3
16 16 16 16 16 16 15 15 14 13 13 13 12 12 11 11 10 10 9 9 8 8 8 7 7 7 6 6 5 5 5 5 4 4 4 4 4 4 5 5 4 4 4
18 18 18 18 18 17 17 17 16 15 14 14 14 14 14 13 12 12 11 11 10 9 9 9 8 8 7 7 7 6 6 6 6 6 6 6 6 7 7 7 7 7 7
19 19 19 20 20 19 19 18 18 17 16 16 16 16 15 15 14 13 12 12 12 11 10 10 10 10 9 9 8 8 8 8 8 8 8 9 9 9 10 9 9 9 9
21 21 21 21 21 21 21 20 19 19 18 18 17 17 17 16 16 16 15 14 13 13 12 12 12 11 11 11 10 10 10 10 10 10 10 11 11 11 12 12 11 11 11
23 23 23 23 22 23 23 22 22 21 21 20 19 19 19 18 18 18 17 16 15 15 14 14 14 13 13 13 13 13 12 12 12 12 12 13 13 13 13 13 13 13 13
25 25 25 24 24 24 24 24 23 23 23 22 21 21 21 20 20 19 19 18 18 17 16 16 16 15 15 14 14 15 15 15 14 14 14 14 15 15 15 15 15 15 15
26 26 26 26 26 25 25 25 25 24 24 24 23 22 22 22 21 21 20 20 19 19 18 18 17 18 17 17 16 17 17 17 16 16 16 16 16 17 17 17 17 17 17
27 28 28 28 27 27 26 26 26 26 26 26 25 24 23 23 22 22 22 21 21 21 21 20 19 20 19 19 19 19 19 19 18 18 18 18 18 18 18 18 19 19 19
29 29 29 29 29 28 28 28 28 28 27 27 26 25 25 25 24 24 24 24 23 23 23 23 22 21 21 21 21 21 21 21 20 20 20 19 20 20 20 20 20 21 21
31 31 31 31 31 30 30 30 30 30 30 29 28 27 27 26 26 26 25 25 25 25 25 24 24 23 23 23 23 23 23 23 22 22 22 22 22 22 22 22 22 23 23
32 33 33 33 33 33 33 33 32 32 32 31 31 30 29 28 28 27 26 26 26 26 26 26 26 25 25 25 25 25 25 25 24 24 24 24 24 24 24 24 24 24 25
33 34 35 35 35 35 35 34 34 34 33 33 33 32 31 30 30 29 29 28 27 27 27 28 28 27 27 27 27 26 26 26 26 26 26 26 26 27 26 26 26 26 27
34 35 36 36 35 35 35 35 35 36 35 35 34 34 33 33 32 31 31 30 28 28 29 29 29 29 29 29 29 28 28 28 28 28 28 28 28 29 29 28 28 28 29
35 35 36 36 36 35 36 36 36 36 36 36 36 35 34 34 33 32 31 31 30 30 30 30 29 30 30 30 30 30 29 30 30 30 30 30 30 30 30 30 30 30 30
35 36 36 36 36 36 37 36 36 37 36 36 36 36 35 35 35 34 33 32 32 32 31 31 31 31 31 31 31 31 31 31 32 32 32 32 32 32 32 32 32 32 32
35 35 35 36 35 36 36 37 37 36 37 37 36 37 37 36 36 36 34 33 33 33 33 33 33 33 33 33 33 32 33 33 33 33 34 34 33 33 33 33 33 33 33
35 35 34 35 36 36 37 37 37 37 38 37 37 37 37 37 36 36 35 35 34 34 34 34 35 34 34 34 34 35 35 35 35 35 35 35 35 34 34 34 34 34 34
35 34 34 34 34 35 36 36 36 36 37 37 37 37 37 37 37 37 37 37 36 35 36 36 35 36 36 35 35 35 36 36 36 36 36 37 37 36 36 36 36 36 36
35 35 34 34 34 34 35 34 35 35 36 37 38 37 37 37 38 38 38 38 37 36 37 38 37 37 37 37 37 36 36 37 37 37 38 38 38 38 38 38 38 38 38
35 34 34 34 34 35 34 34 34 35 35 36 37 36 37 38 39 39 39 39 39 38 37 37 37 37 37 37 37 37 37 38 38 38 38 38 38 39 39 40 40 40 40
34 33 33 33 33 33 33 33 34 34 35 36 35 36 38 38 39 39 39 40 40 40 40 39 39 37 37 37 37 37 38 38 38 38 39 39 39 40 40 40 40 41 41
33 33 33 32 32 32 33 33 34 34 35 35 36 37 38 39 39 39 40 40 40 40 41 41 40 40 40 39 38 38 39 39 40 39 40 40 40 41 41 42 42 42 42
32 33 33 32 32 32 32 33 34 35 35 36 36 37 38 37 37 38 39 38 38 39 40 40 40 40 40 40 39 39 40 40 40 41 41 41 42 42 42 43 44 43 43
31 32 33 33 33 33 33 33 33 33 34 36 36 37 37 37 37 36 37 38 37 38 39 40 40 40 40 41 42 41 41 41 41 42 41 41 42 42 43 43 43 43 44
Wind_Direction
242 242 242 241 241 243 244 241 239 236 233 229 228 227 227 228 227 231 231 228 231 232 233 229 228 227 227 223 225 224 222 222 205 189 175 168 173 180 200 193 185 191 205
244 244 244 243 243 242 243 242 241 240 238 233 232 231 230 230 230 234 235 234 236 237 238 237 233 235 238 236 235 237 241 241 237 230 232 237 239 244 250 248 245 247 251
247 245 245 244 243 243 243 243 242 241 240 237 236 236 236 236 234 234 238 239 238 240 240 242 239 237 244 246 242 244 247 250 250 249 255 260 260 260 265 265 266 265 264
247 246 245 245 244 243 243 244 244 243 241 241 240 240 241 241 241 240 240 241 241 243 243 244 247 241 244 248 249 250 253 256 257 257 259 262 262 262 266 267 266 267 268
248 247 247 246 245 244 244 245 245 245 244 244 243 243 243 243 243 244 243 244 244 245 246 245 249 245 245 248 251 253 255 257 259 261 262 264 264 263 264 266 267 267 269
249 249 248 247 246 245 245 246 246 246 246 246 246 246 246 247 247 247 247 247 247 248 248 249 249 249 248 250 254 256 259 262 263 265 265 265 265 265 265 268 267 268 270
251 250 249 248 247 246 246 246 246 246 247 248 249 248 248 248 249 249 249 250 249 250 250 250 252 254 253 254 257 260 262 265 266 268 268 267 266 265 266 266 266 267 269
251 250 248 248 248 248 247 247 247 247 248 249 250 250 250 250 251 251 250 251 250 249 250 251 254 256 255 256 258 261 263 265 268 269 271 271 270 269 267 267 267 267 268
251 250 249 248 248 248 249 248 248 248 248 249 250 251 250 250 251 252 251 252 252 251 252 254 257 257 256 258 260 262 264 266 268 270 271 272 271 270 268 268 268 268 269
252 251 250 249 248 248 248 249 249 248 248 249 250 253 252 250 251 252 253 253 253 253 253 255 258 258 258 261 262 264 266 268 269 270 270 271 272 271 268 267 267 269 270
254 253 251 250 249 249 249 248 248 248 247 248 250 253 255 254 253 254 254 254 254 254 254 256 257 259 260 261 262 265 267 268 269 270 270 270 270 271 269 268 268 269 270
253 253 252 251 251 250 249 248 248 248 247 247 249 251 254 256 255 255 255 255 255 254 255 256 257 259 261 262 263 265 266 267 269 270 270 270 270 270 269 269 269 270 270
252 252 252 252 251 251 250 249 248 247 247 248 249 250 253 255 255 255 256 256 255 255 256 256 257 259 262 263 263 264 266 266 268 270 271 271 270 270 270 270 270 271 271
255 253 253 254 253 252 251 249 247 247 248 249 249 250 251 252 254 256 256 256 256 256 257 257 258 260 262 263 263 264 265 266 268 269 271 271 271 270 271 271 271 271 271
257 256 256 255 254 252 251 249 248 248 249 249 250 250 250 251 252 254 256 257 257 257 257 258 258 260 261 262 263 265 265 266 268 270 270 270 270 271 271 272 272 271 272
258 258 256 254 252 250 250 250 250 249 249 249 249 249 250 250 251 252 254 256 256 256 256 257 259 260 261 262 263 264 265 266 268 270 270 270 271 272 273 273 273 273 273
258 257 255 254 253 251 250 250 249 248 247 248 248 249 249 249 250 252 253 254 255 256 257 258 258 260 261 262 263 264 265 266 267 269 270 271 272 273 273 274 275 274 273
257 257 255 254 253 252 251 251 250 249 248 247 248 248 248 249 250 252 253 254 255 255 257 258 259 261 262 263 264 264 266 267 267 268 269 271 273 273 274 274 275 275 274
256 256 255 253 252 253 252 252 251 250 249 249 249 249 249 249 251 252 254 254 255 255 257 259 261 261 263 263 264 264 266 267 268 269 270 272 272 272 273 274 275 276 275
257 256 255 254 253 253 253 252 252 251 251 249 250 249 249 249 250 252 254 255 257 257 258 259 260 261 262 262 264 266 267 267 268 270 271 272 272 272 273 274 275 275 276
257 256 255 254 253 253 252 252 252 252 251 249 250 250 251 251 251 252 253 256 257 258 259 260 259 261 262 263 265 266 267 268 269 271 271 272 272 272 273 274 275 275 276
257 256 255 254 254 253 252 251 252 252 251 250 250 250 251 252 254 254 255 256 257 259 260 260 261 261 263 263 264 266 267 268 269 270 271 272 272 273 274 275 276 275 276
256 255 254 254 255 253 252 252 252 250 250 249 249 251 253 254 255 256 256 257 258 259 260 262 261 262 262 264 266 266 267 268 270 270 271 271 272 273 275 276 276 275 276
255 253 252 254 253 252 253 253 252 251 251 250 250 251 254 255 256 255 256 258 258 260 262 262 262 262 263 265 266 267 268 269 270 270 271 272 273 274 275 276 277 276 277
254 252 251 252 252 252 253 253 253 253 253 253 253 254 254 255 256 256 257 258 260 263 264 264 264 264 265 266 268 269 270 270 271 272 272 272 274 275 276 276 277 277 277
254 253 252 252 253 253 254 254 254 255 255 255 255 256 256 256 257 257 259 259 261 263 264 265 264 264 265 268 269 271 272 273 273 273 273 273 274 275 276 276 277 277 277
Height
5837 5837 5838 5840 5841 5842 5843 5843 5844 5844 5845 5846 5847 5847 5848 5849 5849 5850 5850 5851 5851 5851 5852 5853 5853 5853 5854 5854 5854 5855 5855 5855 5856 5856 5856 5856 5857 5857 5858 5858 5859 5859 5859
5834 5835 5836 5837 5839 5840 5841 5842 5842 5843 5844 5844 5845 5846 5847 5847 5848 5849 5849 5850 5850 5851 5851 5852 5852 5853 5853 5854 5854 5854 5854 5855 5855 5856 5856 5856 5857 5857 5858 5858 5858 5858 5859
5831 5833 5834 5835 5836 5837 5838 5840 5840 5841 5842 5843 5844 5845 5846 5846 5847 5848 5848 5849 5849 5850 5850 5851 5851 5852 5852 5853 5853 5854 5854 5854 5855 5855 5855 5856 5856 5856 5857 5857 5857 5858 5858
5828 5829 5831 5832 5833 5834 5836 5837 5838 5838 5840 5840 5842 5843 5844 5844 5845 5846 5847 5847 5848 5849 5849 5850 5850 5851 5851 5852 5852 5852 5853 5853 5854 5854 5855 5855 5855 5855 5856 5856 5856 5856 5857
5825 5826 5827 5829 5830 5831 5833 5834 5835 5836 5837 5838 5839 5840 5841 5842 5843 5844 5845 5846 5846 5847 5848 5848 5849 5849 5850 5850 5851 5851 5852 5852 5852 5853 5853 5853 5854 5854 5854 5854 5855 5855 5855
5821 5822 5824 5825 5826 5828 5829 5830 5832 5833 5834 5835 5836 5837 5838 5839 5841 5842 5843 5844 5844 5845 5846 5846 5847 5847 5848 5848 5849 5849 5850 5850 5850 5851 5851 5851 5852 5852 5852 5852 5853 5853 5853
5817 5818 5819 5821 5822 5823 5825 5826 5828 5829 5830 5832 5833 5834 5835 5836 5838 5839 5840 5841 5842 5843 5843 5844 5845 5845 5845 5846 5846 5847 5847 5848 5848 5848 5849 5849 5849 5849 5850 5850 5850 5851 5851
5812 5814 5815 5816 5818 5819 5820 5822 5824 5825 5826 5828 5829 5830 5831 5833 5834 5835 5837 5838 5839 5840 5841 5841 5842 5842 5843 5843 5844 5844 5845 5845 5845 5846 5846 5846 5846 5846 5847 5847 5847 5847 5848
5807 5809 5810 5811 5813 5814 5816 5817 5819 5820 5822 5823 5825 5826 5827 5829 5830 5831 5833 5834 5835 5836 5837 5838 5839 5839 5840 5840 5841 5841 5842 5842 5842 5843 5843 5843 5843 5843 5843 5843 5844 5844 5844
5802 5803 5805 5806 5807 5809 5810 5812 5813 5815 5817 5818 5820 5822 5823 5824 5826 5827 5829 5830 5831 5832 5833 5834 5835 5835 5836 5837 5837 5838 5838 5839 5839 5839 5839 5839 5839 5839 5840 5840 5840 5840 5840
5796 5797 5799 5800 5801 5803 5805 5806 5807 5809 5811 5813 5815 5817 5818 5820 5821 5822 5824 5825 5827 5828 5829 5830 5831 5831 5832 5833 5833 5834 5834 5835 5835 5835 5835 5835 5835 5835 5835 5836 5836 5836 5836
5789 5791 5792 5794 5795 5797 5798 5800 5801 5803 5805 5807 5809 5811 5813 5814 5816 5817 5819 5820 5821 5823 5824 5825 5826 5827 5827 5828 5829 5829 5830 5830 5831 5831 5831 5831 5831 5831 5831 5831 5831 5831 5831
5782 5783 5785 5786 5788 5789 5791 5792 5794 5796 5798 5801 5803 5805 5807 5808 5810 5811 5813 5815 5816 5817 5819 5820 5820 5821 5822 5823 5824 5824 5825 5825 5826 5826 5826 5826 5826 5826 5826 5826 5826 5826 5826
5775 5776 5777 5778 5780 5781 5782 5784 5787 5789 5791 5793 5796 5798 5800 5802 5804 5805 5807 5809 5810 5812 5813 5814 5815 5816 5817 5817 5818 5819 5819 5820 5820 5820 5820 5820 5820 5820 5820 5820 5820 5820 5820
5767 5768 5769 5770 5771 5773 5774 5776 5778 5781 5783 5786 5788 5790 5792 5795 5797 5798 5800 5802 5804 5805 5807 5808 5809 5809 5810 5811 5812 5813 5813 5814 5814 5814 5815 5815 5814 5814 5814 5814 5814 5813 5813
5758 5759 5760 5761 5762 5764 5766 5768 5770 5772 5775 5777 5780 5782 5784 5787 5789 5791 5793 5795 5797 5798 5800 5801 5802 5803 5804 5805 5806 5806 5807 5808 5808 5808 5808 5808 5808 5808 5807 5807 5807 5807 5806
5749 5750 5751 5752 5754 5755 5757 5759 5761 5764 5766 5769 5771 5774 5776 5779 5781 5783 5786 5787 5789 5791 5792 5794 5795 5796 5797 5798 5799 5799 5800 5801 5801 5801 5801 5801 5801 5801 5800 5800 5800 5799 5799
5740 5741 5742 5743 5745 5746 5748 5750 5753 5756 5758 5760 5763 5765 5768 5771 5773 5775 5778 5780 5782 5783 5785 5786 5788 5789 5790 5791 5792 5792 5793 5793 5794 5794 5794 5794 5793 5793 5793 5793 5792 5792 5791
5731 5732 5733 5734 5736 5738 5740 5742 5744 5747 5749 5752 5755 5757 5760 5763 5766 5768 5771 5773 5774 5776 5777 5779 5780 5781 5782 5783 5784 5785 5785 5785 5786 5786 5786 5785 5785 5785 5785 5785 5784 5783 5783
5723 5723 5724 5726 5728 5729 5731 5733 5736 5738 5741 5744 5746 5749 5752 5755 5758 5760 5763 5765 5767 5768 5770 5771 5772 5773 5774 5775 5776 5776 5777 5777 5777 5778 5777 5777 5777 5777 5777 5777 5776 5775 5774
5714 5715 5716 5718 5720 5722 5724 5726 5728 5730 5733 5736 5738 5741 5744 5747 5750 5752 5755 5757 5758 5760 5761 5763 5763 5765 5766 5767 5768 5768 5768 5768 5769 5769 5769 5768 5768 5768 5768 5767 5767 5766 5765
5706 5707 5708 5710 5712 5714 5716 5719 5721 5723 5725 5728 5731 5734 5736 5739 5741 5744 5746 5748 5750 5751 5752 5753 5755 5756 5757 5758 5759 5759 5760 5760 5760 5760 5760 5760 5759 5759 5759 5758 5757 5756 5755
5698 5699 5701 5703 5705 5707 5709 5711 5713 5715 5717 5720 5723 5726 5729 5731 5733 5735 5737 5740 5741 5742 5743 5745 5746 5747 5748 5749 5750 5750 5750 5751 5751 5751 5751 5750 5750 5750 5749 5747 5747 5746 5745
5690 5692 5694 5696 5697 5699 5701 5703 5705 5708 5710 5713 5715 5718 5721 5723 5724 5726 5728 5730 5732 5733 5734 5736 5737 5738 5739 5739 5739 5740 5741 5741 5741 5742 5741 5741 5740 5739 5738 5737 5736 5735 5734
5682 5684 5686 5688 5690 5692 5694 5696 5698 5700 5703 5705 5708 5710 5712 5714 5716 5718 5719 5721 5722 5724 5725 5726 5727 5728 5729 5729 5730 5730 5730 5730 5730 5731 5731 5730 5730 5728 5727 5726 5725 5724 5723
5675 5677 5679 5681 5683 5685 5687 5689 5691 5693 5695 5698 5700 5702 5704 5706 5708 5710 5711 5712 5713 5714 5715 5716 5717 5718 5719 5719 5720 5720 5720 5720 5719 5719 5720 5719 5719 5718 5716 5715 5714 5713 5712